SCP
0 0 0 0 0 0 0 0 0 0 0 0 0 0 0 -0 -0 -0 0 0 0 0 0 0 0 0 0 0 0 0 0 0 0 0 0 0 0 0
0 0 0 0 0 0 0 0 0 0 0 0 0 0 0 0 -0 0 0 0 0 0 0 0 0 0 0 0 0 0 0 0 0 0 0 0 0 0
0 0 0 0 0 0 0 0 0 0 0 0 0 0 0 0 0 0 0 0 0 0 0 0 0 0 0 0 0 0 0 0 0 0 0 0 0 0
0 0 0 0 0 0 0 0 0 0 0 0 0 0 0 0 0 0 0 0 0 0 0 0 0 0 0 0 0 0 0 0 0 0 0 0 0 0
0 0 0 0 0 0 0 0 0 0 0 0 0 0 0 0 0 0 0 0 0 0 0 0 0 0 0 0 0 0 0 0 0 0 0 0 0 0
0 0 0 0 0 0 0 0 0 0 0 0 0 0 0 0 0 0 0 0 0 0 0 0 0 0 0 0 0 0 0 0 0 0 0 0 0 0
0 0 0 0 0 0 0 0 0 0 0 0 0 0 0 0 0 0 0 0 0 0 0 0 0 0 0 0 0 0 0 0 0 0 0 0 0 0
0 0 0 0 0 0 0 0 0 0 0 0 0 0 0 0 0 0 0 0 0 0 0 0 0 0 0 0 0 0 0 -0 -0 0 0 0 0 0
0 0 0 0 0 0 0 0 0 0 0 0 0 0 0 0 0 0 0 0 0 0 0 0 0 0 0 0 0 0 0 -0 -0 0 0 0 0 0
0 0 0 0 0 0 0 0 0 0 0 0 0 0 0 0 0 0 0 0 0 0 0 0 0 0 0 0 0 0 0 -0 -0 0 0 0 0 0
0 0 0 0 0 0 0 0 0 0 0 0 0 0 0 0 0 0 0 0 0 0 0 0 0 0 0 0 0 0 0 0 0 0 0 0 0 0
0 0 0 0 0 0 0 0 0 0 0 0 0 0 0 0 0 0 0 0 0 0 0 0 0 0 0 0 0 0 0 0 0 0 0 0 0 0
0 0 0 0 0 0 0 0 0 0 0 0 0 0 0 0 0 0 0 0 0 0 0 0 -0 -0 -0 0 0 0 0 0 0 0 0 0 0 0
0 0 0 0 0 0 0 0 0 0 0 0 0 0 0 0 0 0 0 0 0 0 0 0 0 -0 -0 -0 0 0 0 0 0 0 0 0 0 0
0 0 0 0 0 0 0 0 0 0 0 0 0 0 0 0 0 0 0 0 0 0 0 0 0 0 0 0 0 0 0 0 0 0 0 0 0 0
0 0 0 0 0 0 0 0 0 0 0 0 0 0 0 0 0 0 0 0 0 0 0 0 0 0 0 0 0 0 0 0 0 0 0 0 0 0
0 0 0 0 0 0 0 0 0 0 0 0 0 0 0 0 0 0 0 0 0 0 0 0 0 0 0 0 0 0 0 0 0 0 0 0 0 0
0 0 0 0 0 0 0 0 0 0 0 0 0 0 0 0 0 0 0 0 0 0 0 0 0 0 0 0 0 0 0 0 0 0 0 0 0 0
0 0 0 0 0 0 0 0 0 0 0 0 0 0 0 0 0 0 0 0 0 0 0 0 0 0 0 0 0 0 0 0 0 0 0 0 0 0
0 0 0 0 0 0 0 0 0 0 0 0 0 0 0 0 0 0 0 0 0 0 0 0 0 0 0 0 0 0 0 0 0 0 0 0 0 0
0 0 0 0 0 0 0 0 0 0 0 0 0 0 0 0 0 0 0 0 0 0 0 0 0 0 0 0 0 0 0 0 0 0 0 0 0 0
0 0 0 0 0 0 0 0 0 0 0 0 0 0 0 0 0 0 0 0 0 0 0 0 0 0 0 0 0 0 0 0 0 0 0 0 0 0
0 0 0 0 0 0 0 0 0 0 0 0 0 0 0 0 0 0 0 0 0 0 0 0 0 0 0 0 0 0 0 0 0 0 0 0 0 0
Wind_Speed
4 5 3 3 2 1 2 3 3 1 2 2 2 3 3 3 5 5 5 9 12 13 13 13 13 14 14 14 14 13 14 13 14 15 16 18 17 17
3 5 4 3 2 2 2 2 3 3 2 2 2 3 4 4 5 5 6 9 12 13 14 14 14 14 14 14 14 14 13 13 15 17 17 17 16 16
2 4 4 3 3 2 2 2 2 3 2 1 1 0 3 3 3 3 4 4 5 12 13 14 14 14 14 14 15 15 13 14 16 17 17 17 15 15
1 2 2 2 2 2 3 3 2 2 3 1 1 2 1 2 3 3 4 5 5 10 13 15 15 15 15 16 16 16 15 15 15 15 16 16 14 15
4 4 3 4 3 2 2 2 2 1 2 2 0 1 1 1 1 3 4 4 5 7 11 14 16 16 16 17 17 17 17 14 13 14 16 14 12 12
7 6 5 5 4 3 2 2 2 2 2 2 1 0 1 1 0 1 2 3 4 5 7 7 10 13 15 17 17 17 17 14 13 15 14 11 10 11
6 6 5 6 7 5 3 2 3 3 2 2 1 1 1 1 1 1 2 3 3 2 2 3 3 4 6 11 15 17 17 14 12 14 12 8 8 9
5 5 6 7 8 8 9 9 6 4 3 2 0 0 0 1 2 2 2 3 3 3 2 3 1 3 4 4 10 15 15 11 10 12 9 6 7 8
5 5 5 6 8 5 6 7 8 8 6 4 3 2 2 1 1 2 2 1 2 4 3 3 3 3 3 4 10 12 11 9 8 9 7 5 6 7
5 5 5 6 6 5 5 5 5 5 5 3 2 2 2 1 0 1 2 2 2 3 3 1 3 3 4 4 11 12 8 6 3 4 4 3 5 7
5 4 4 6 10 9 6 6 6 6 7 8 5 1 1 1 1 2 3 2 1 1 3 2 2 3 3 3 6 11 10 7 4 3 3 2 2 4
3 4 5 4 7 8 5 5 5 5 6 7 6 5 4 4 4 3 2 2 1 2 3 2 3 3 4 3 3 4 4 4 3 3 3 4 5 3
0 1 2 2 4 6 5 3 4 4 4 4 3 3 3 4 4 4 2 1 1 1 2 2 2 2 2 4 4 3 4 4 3 2 3 5 7 7
2 2 3 4 2 4 3 4 5 5 3 3 3 2 3 3 3 4 4 2 1 3 3 1 1 1 2 2 3 4 5 4 3 3 2 2 5 8
3 5 5 4 3 3 5 6 3 2 2 2 1 1 2 2 2 2 4 4 4 3 3 2 1 0 1 1 3 3 4 4 4 4 3 2 3 3
1 3 3 3 2 3 5 4 1 2 2 2 2 2 2 2 2 2 3 3 4 5 5 5 3 1 1 2 1 2 2 4 4 4 5 4 3 2
0 2 3 3 4 4 4 4 2 2 3 2 2 1 1 1 2 2 2 2 2 3 5 5 4 2 0 1 2 3 3 3 3 4 4 4 4 3
1 1 1 2 3 3 4 4 3 3 4 4 3 2 1 1 0 1 1 1 1 2 2 3 4 5 5 4 1 1 3 3 4 4 3 3 5 4
1 2 3 3 3 3 3 3 4 4 3 4 4 4 3 2 2 1 1 1 1 2 2 1 1 1 2 3 6 2 1 3 4 4 3 2 4 5
2 4 5 5 4 4 4 4 4 4 2 3 4 4 3 3 2 1 1 0 1 1 2 1 1 2 3 3 3 5 2 1 2 4 4 4 4 6
4 4 5 5 5 5 4 4 4 4 4 3 4 3 3 3 2 2 2 2 1 1 1 2 4 3 1 1 2 5 5 4 1 2 3 4 5 5
4 4 4 4 4 4 4 3 3 4 5 5 5 5 4 4 4 4 4 3 2 2 0 2 3 2 2 1 2 3 5 6 7 6 2 4 2 3
5 6 6 6 5 4 3 3 3 2 3 4 5 5 5 5 4 5 5 5 4 3 2 2 3 3 2 0 1 2 4 4 4 5 6 7 7 9
Wind_Direction
194 193 193 212 206 153 146 150 150 171 276 257 231 232 220 208 210 209 214 213 208 209 213 217 220 223 226 228 229 231 235 240 247 253 258 263 267 270
190 199 208 204 195 164 148 151 154 160 216 277 241 232 211 219 217 212 221 221 218 217 220 224 227 230 234 238 238 236 234 238 246 251 253 256 257 261
202 203 210 198 187 169 158 158 159 159 169 304 300 280 182 218 228 222 226 223 226 227 229 231 233 236 241 245 248 248 244 244 248 253 257 259 260 265
213 188 192 169 165 160 160 166 168 163 143 156 15 27 50 229 225 231 237 232 230 235 232 232 232 234 238 245 252 256 252 248 251 259 264 266 269 271
63 91 89 91 76 71 142 162 168 140 130 137 68 1 336 7 222 236 239 244 244 247 241 238 236 234 236 241 248 254 256 255 255 258 260 265 270 270
62 66 67 75 72 66 87 123 149 124 110 123 147 301 327 323 323 263 273 253 249 248 247 240 238 235 235 240 247 255 260 259 254 256 259 262 264 262
63 53 49 61 63 64 75 81 124 125 120 139 167 166 278 335 331 317 310 316 300 266 269 260 247 249 238 238 245 252 256 256 252 258 263 258 253 253
69 51 39 36 42 62 75 74 84 109 121 117 106 157 152 347 330 331 352 11 333 340 351 310 273 265 262 242 247 249 254 253 244 253 257 240 233 237
58 51 41 24 28 38 74 76 70 76 93 121 103 81 78 8 340 345 349 333 302 326 347 308 329 305 304 303 301 284 273 264 242 239 237 216 209 217
48 52 56 35 24 46 58 54 44 41 44 55 108 147 155 167 179 257 281 292 300 336 340 325 339 319 324 344 360 5 0 348 307 273 273 245 207 201
38 37 56 55 44 57 62 52 33 12 8 16 14 23 161 146 138 58 30 24 350 337 342 30 341 317 320 351 10 23 27 24 8 331 304 284 227 194
31 18 29 64 61 60 63 59 41 3 358 4 14 22 28 39 50 67 83 67 19 322 340 7 349 354 338 331 354 7 9 357 335 300 256 215 180 173
63 335 314 347 66 63 64 56 21 358 357 18 31 20 13 13 15 17 17 131 123 290 294 5 356 0 349 318 326 341 348 334 329 315 277 235 200 184
208 243 268 281 354 18 15 344 6 20 17 40 46 21 10 0 351 358 3 355 256 246 286 276 218 328 344 331 318 324 327 329 337 325 309 252 228 225
227 239 247 259 315 339 329 324 341 45 22 12 356 302 288 307 344 10 7 4 357 346 2 28 119 331 329 290 299 316 321 320 331 335 324 278 234 205
263 306 328 346 345 310 315 318 271 192 177 246 268 285 315 349 3 22 28 15 9 338 342 11 28 36 332 311 304 311 304 304 316 326 321 316 303 239
283 28 17 359 346 337 335 325 292 219 208 221 229 254 346 17 343 2 35 46 38 335 326 334 350 25 243 252 3 338 325 320 313 317 323 322 320 327
38 357 316 309 304 308 319 323 315 258 216 200 200 189 161 129 17 351 31 53 304 279 293 313 343 8 6 344 251 310 326 310 307 308 308 319 309 307
351 285 276 276 279 286 287 289 289 279 230 185 187 188 173 159 138 89 2 341 293 272 271 284 309 80 48 334 308 246 234 298 319 322 315 291 282 293
253 259 265 267 269 273 276 280 281 278 227 188 187 198 190 166 154 146 124 52 309 316 324 308 255 212 193 216 270 297 309 260 323 326 313 306 290 292
287 274 267 263 258 252 248 254 259 251 231 196 188 198 201 173 166 162 141 109 93 71 11 306 283 261 180 45 345 319 311 322 296 245 300 330 330 334
344 334 312 290 280 277 277 272 264 247 230 216 203 198 200 193 176 160 141 127 121 126 149 303 332 39 73 48 303 296 305 318 332 336 275 212 238 306
9 10 15 10 358 347 332 352 8 325 277 248 225 207 193 186 170 155 147 140 135 121 98 35 17 29 24 340 296 295 305 310 321 330 318 312 298 268